Location: Unspecified
(0.0000°N, 0.0000°E)
Time: 01:30:04
(UTC+00:00)

Explorer 11/Cluster Stage 4 - Visible Passes

Search period start: 19 January 2021 00:00
Search period end: 29 January 2021 00:00
Orbit: 467 x 1258 km, 28.8° (Epoch: 18 January)

Date Brightness Start Highest point End Pass type
(mag) Time Alt. Az. Time Alt. Az. Time Alt. Az.
19 Jan 8.7 04:44:38 15° NNW 04:48:51 23° NNE 04:53:54 10° ENE visible
19 Jan 7.2 19:18:27 10° WSW 19:23:35 51° NNW 19:27:22 23° NE visible
19 Jan 9.4 21:09:14 10° WNW 21:09:30 11° WNW 21:09:30 11° WNW visible
20 Jan 8.5 04:34:25 20° NNW 04:37:58 28° NNE 04:43:34 10° E visible
20 Jan 7.5 19:07:56 10° W 19:12:43 41° NNW 19:17:12 16° NE visible
21 Jan 8.3 04:24:12 26° N 04:27:03 33° NNE 04:33:07 10° E visible
21 Jan 7.7 18:57:30 10° W 19:01:55 32° NNW 19:07:01 11° NE visible
22 Jan 8.1 04:14:00 34° N 04:16:05 40° NNE 04:22:34 10° E visible
22 Jan 8.0 18:47:10 10° W 18:51:07 25° NNW 18:55:50 10° NNE visible
23 Jan 7.9 04:03:49 44° N 04:05:04 47° NNE 04:11:55 10° E visible
23 Jan 7.5 05:46:52 10° WNW 05:54:21 55° SSW 06:00:34 10° SE visible
23 Jan 8.3 18:36:58 10° WNW 18:40:22 20° NNW 18:44:17 10° NNE visible
24 Jan 7.7 03:53:38 55° NNE 03:54:01 55° NNE 04:01:12 10° ESE visible
24 Jan 7.8 05:35:51 10° WNW 05:43:18 47° SSW 05:49:37 10° SE visible
25 Jan 7.6 03:43:26 63° NE 03:43:26 63° NE 03:50:24 10° ESE visible
25 Jan 8.0 05:25:34 13° W 05:32:14 41° SSW 05:38:36 10° SE visible
26 Jan 7.7 03:33:13 62° E 03:33:13 62° E 03:39:31 10° ESE visible
26 Jan 8.2 05:15:21 15° W 05:21:10 36° SSW 05:27:32 10° SSE visible
27 Jan 8.0 03:22:58 53° ESE 03:22:58 53° ESE 03:28:34 10° ESE visible
27 Jan 8.4 05:05:05 17° W 05:10:06 31° SSW 05:16:24 10° SSE visible
28 Jan 8.4 03:12:42 42° SE 03:12:42 42° SE 03:17:34 10° ESE visible
28 Jan 8.6 04:54:49 18° WSW 04:59:04 28° SSW 05:05:14 10° SSE visible
